Cloud_Cover
0 0 1 5 4 0 0 0 0 3 0 0 76 8 100 46 67 84 95 65 12 6 84 30 7 5 29 12 75 9 5 38 61 99 64 54 7 1 5 8 37 100 100 100
0 0 0 5 5 5 0 0 0 0 0 0 100 6 94 100 100 96 100 100 92 99 39 25 7 71 100 100 100 100 100 17 8 5 8 24 26 5 5 91 47 9 6 55
0 0 0 0 1 4 2 0 0 7 4 5 90 64 100 100 100 100 54 100 26 8 75 100 90 100 100 98 99 74 100 98 13 11 0 22 60 5 69 48 83 100 100 91
0 0 0 0 0 0 1 0 0 10 0 0 68 94 100 100 100 100 82 65 51 30 84 72 100 100 100 100 100 100 100 100 21 8 1 3 5 32 13 12 76 89 98 100
0 0 0 0 0 0 0 0 0 0 0 22 5 5 69 5 12 100 99 8 65 95 7 100 100 100 100 100 100 100 100 100 98 97 15 0 0 82 17 1 5 10 22 81
0 3 0 0 0 0 0 5 47 0 0 5 1 53 100 94 46 100 100 18 68 44 59 100 100 100 100 100 100 100 100 100 100 100 100 100 96 5 1 78 33 39 91 86
0 5 0 0 0 0 0 4 5 58 7 0 51 100 100 75 9 68 100 88 65 50 100 100 100 100 100 100 100 100 100 100 100 100 100 81 100 100 100 86 20 40 33 21
2 4 0 0 3 12 33 5 17 99 90 63 92 100 77 77 5 66 99 99 86 60 82 100 100 99 100 100 100 100 100 100 100 100 100 100 100 100 65 3 1 3 55 28
0 5 5 6 48 82 100 88 58 32 99 81 100 100 100 100 99 41 86 95 82 42 66 82 100 100 100 100 100 100 100 100 100 100 82 66 64 42 3 1 0 0 10 5
0 5 14 99 7 84 100 100 100 83 9 94 100 100 79 88 94 48 19 42 8 59 100 100 100 100 100 100 100 100 100 100 100 100 100 100 100 65 23 6 12 3 51 54
2 5 26 98 95 83 96 100 99 92 39 11 25 84 60 24 22 11 30 19 27 98 100 100 94 100 100 100 100 100 100 100 100 100 100 100 100 100 95 100 100 100 90 49
27 12 55 83 83 92 100 100 96 91 99 100 96 20 12 44 50 68 38 52 73 100 100 100 100 100 100 100 100 100 100 100 100 100 100 100 100 100 100 84 100 18 5 8
5 62 38 38 100 99 83 100 100 100 82 100 62 100 11 11 47 52 40 36 47 98 100 100 100 100 100 100 100 100 100 98 100 100 100 99 98 98 99 100 98 83 11 6
68 34 72 100 100 94 59 92 100 100 86 6 5 5 4 5 36 41 38 7 5 75 20 84 98 100 100 100 100 100 100 100 100 100 100 100 99 100 99 77 51 61 48 22
99 64 100 42 64 97 98 43 16 41 7 5 4 5 32 84 88 64 22 30 98 90 81 76 45 100 100 100 100 100 100 100 100 100 100 93 85 100 26 36 7 41 13 6
92 85 95 100 92 23 92 97 100 95 10 12 2 42 96 52 94 97 27 42 100 100 96 7 5 6 31 59 97 100 100 100 75 50 48 86 73 3 1 4 9 2 0 0
99 58 74 100 100 97 72 100 100 100 100 100 100 100 59 6 28 36 34 57 61 100 100 9 5 6 74 88 100 100 100 100 98 58 54 5 2 0 0 0 0 0 0 0
95 97 76 98 95 99 95 100 100 100 100 100 95 73 25 20 56 73 78 63 86 78 79 100 65 62 56 5 32 49 7 5 5 5 5 5 3 0 0 0 0 0 3 3
100 100 100 100 100 100 100 100 100 89 100 100 100 100 100 100 100 89 90 71 100 100 75 100 82 48 5 41 28 5 45 44 49 5 5 50 32 5 4 1 7 21 5 5
10 16 8 11 8 9 11 3 2 7 33 44 66 100 100 100 64 48 75 100 100 100 28 61 36 74 42 17 90 99 95 71 61 68 78 99 66 13 5 5 5 5 45 8
8 7 2 1 0 0 0 0 0 19 18 35 51 67 76 100 68 82 89 100 100 100 100 90 100 100 100 100 76 100 99 98 100 100 100 61 58 7 5 3 5 8 60 95
20 15 5 5 5 5 5 5 3 1 3 7 23 48 99 74 75 89 98 100 100 100 100 100 100 100 100 100 97 94 100 100 90 100 100 45 6 5 5 78 93 96 100 100
5 5 4 5 3 1 0 1 4 4 5 5 8 29 65 76 100 100 100 79 98 100 100 100 100 100 100 100 100 100 100 100 100 91 100 98 67 34 53 58 95 100 93 100
5 5 5 1 5 5 5 21 5 2 0 0 0 2 31 95 47 45 86 100 100 100 100 100 100 100 100 100 100 100 100 100 100 100 100 100 100 97 84 98 100 100 58 29
4 5 5 4 0 0 3 5 5 5 4 0 0 0 1 20 6 60 99 69 85 90 96 100 100 100 100 100 100 100 100 100 100 100 100 100 100 100 100 100 99 100 100 46
10 60 15 30 60 30 5 5 4 2 8 21 16 48 71 96 78 30 6 43 13 60 75 45 97 100 100 100 100 100 100 100 100 100 100 98 100 100 100 71 53 63 89 100
43 80 100 100 87 98 20 5 5 44 79 98 99 97 77 90 54 39 65 9 7 2 2 2 28 99 94 100 100 100 100 100 100 100 100 100 100 94 82 94 100 100 100 100